Home > Weather > Francistown > Past weeks

Flag for Botswana Past Weather in Francistown, Botswana — Yesterday and Last 2 Weeks

Now
64 °F

Clear.


Feels Like: 64 °F
Forecast: 47 / 83 °F
Wind: 9 mph from Southeast

Location: Francistown Airport

Current Time: Aug 28, 2016 at 2:43:07 AM

Latest Report: Aug 27, 2016 at 9:00 PM


Visibility: 10 mi

Pressure: 30.36 "Hg (27.03 "Hg at 989m altitude)

Humidity: 32%

Dew Point: 34 °F

Location of FrancistownLocation

Past Weather in Francistown — Graph

°F

Francistown Temperature Yesterday

Maximum temperature yesterday: 79 °F (at 3:00 PM)
Minimum temperature yesterday: 57 °F (at 6:00 AM)
Average temperature yesterday: 69 °F

High & Low Weather Summary for the Past Weeks

 TemperatureHumidityPressure
High91 °F (Aug 21, 4:00 PM)82% (Aug 18, 6:00 AM)30.42 "Hg (Aug 18, 6:00 AM)
Low36 °F (Aug 13, 7:00 AM)9% (Aug 22, 3:00 PM)30.01 "Hg (Aug 21, 4:00 PM)
Average70 °F35%30.22 "Hg
* Reported Aug 12 9:00 PM — Aug 27 9:00 PM, Francistown, Weather by CustomWeather, © 2016

Note: Actual official high and low records may vary slightly from our data, if they occured in-between our weather recording intervals... More about our weather records

Advertising

Francistown Weather History for the Previous 24 Hours

Scroll right to see more
 ConditionsComfort  
Time TempWeatherWind HumidityBarometerVisibility
9:00 PM
Sat, Aug 27
64 °FClear.9 mph32%30.36 "Hg10 mi
8:00 PM66 °FClear.10 mph28%30.33 "Hg10 mi
7:00 PM68 °FClear.13 mph26%30.33 "Hg10 mi
6:00 PM72 °FClear.13 mph22%30.30 "Hg10 mi
5:00 PM77 °FPassing clouds.15 mph18%30.33 "HgN/A
4:00 PM77 °FPassing clouds.16 mph18%30.30 "HgN/A
3:00 PM79 °FPassing clouds.16 mph18%30.30 "HgN/A
2:00 PM77 °FPassing clouds.15 mph22%30.33 "HgN/A
1:00 PM75 °FSunny.13 mph24%30.36 "Hg10 mi
12:00 PM73 °FSunny.17 mph27%30.39 "Hg10 mi
11:00 AM72 °FSunny.20 mph27%30.42 "Hg10 mi
10:00 AM68 °FSunny.21 mph33%30.42 "Hg10 mi
9:00 AM64 °FSunny.18 mph37%30.42 "Hg10 mi
8:00 AM61 °FSunny.14 mph45%30.42 "Hg10 mi
7:00 AM57 °FSunny.12 mph44%30.39 "Hg10 mi
6:00 AM57 °FSunny.13 mph41%30.36 "Hg10 mi
Weather by CustomWeather, © 2016

See weather overviewHow to use our weather pages